Theta_e
308 309 310 311 313 316 317 317 316 316 316 315 315 316 317 317 316 313 314 314 313 310 312 313 312 311 309 309 309 307 309 310 309 306 304 304 303 303 302 302 301 301 301 301 300 298 295 311 309 304 309 313 312 313
308 310 312 312 315 316 316 316 315 315 315 315 315 316 316 316 316 314 313 313 314 312 312 313 316 317 313 311 310 309 309 309 311 307 306 305 303 302 300 299 304 301 304 303 303 303 309 313 311 314 313 314 314 314
308 309 313 314 314 314 315 315 314 314 313 315 315 315 316 316 315 313 311 311 312 311 313 313 311 315 313 312 313 310 310 312 310 310 309 306 302 304 300 300 302 305 307 306 305 307 310 312 314 315 315 315 316 316
308 310 312 313 312 312 312 312 312 313 312 313 315 315 315 315 315 313 313 312 310 311 309 310 315 314 316 315 313 312 311 309 310 311 308 307 305 304 303 303 304 306 308 305 305 308 309 311 313 315 315 316 315 317
308 308 308 309 310 311 311 311 311 311 311 311 313 314 314 314 313 312 314 313 312 308 308 309 312 314 313 316 314 313 312 312 311 309 308 305 307 307 306 305 305 309 307 304 302 310 310 312 315 315 314 314 316 316
307 307 307 308 308 310 311 310 309 309 310 310 312 313 314 313 312 313 315 314 314 313 308 306 312 313 313 314 314 314 314 312 311 310 307 308 307 308 305 303 306 308 310 311 310 313 313 314 315 316 315 316 317 318
307 307 306 306 307 309 310 310 308 308 308 309 310 311 313 311 312 311 312 314 311 314 311 306 308 312 311 312 312 313 313 311 312 309 309 309 310 310 306 302 308 311 313 314 315 314 312 315 313 317 317 318 318 319
306 306 306 306 307 308 308 308 307 307 307 308 309 312 312 311 310 312 316 311 312 313 311 305 306 308 311 309 309 310 311 312 309 309 309 309 308 309 303 309 310 312 314 315 315 316 315 316 317 318 319 319 318 318
306 306 306 306 306 306 307 307 307 306 307 308 310 312 313 312 313 315 314 312 315 313 307 307 305 302 312 308 309 310 310 307 308 308 308 308 306 303 308 310 312 313 314 314 315 315 317 316 317 318 318 319 317 317
306 306 306 306 306 306 307 307 307 307 308 310 311 312 310 314 317 316 314 311 311 310 310 308 309 306 310 308 307 308 308 305 303 306 310 307 305 310 312 314 315 316 316 315 312 313 315 316 317 317 316 316 316 316
306 305 306 306 306 306 306 306 307 309 310 310 309 310 313 313 312 311 308 307 308 305 307 308 309 307 311 307 306 307 305 305 299 304 305 303 304 312 314 316 318 317 317 316 317 318 320 319 317 315 315 316 316 317
306 306 306 306 306 306 306 307 308 308 309 307 308 309 310 311 307 305 303 304 304 304 307 307 308 310 309 311 308 306 303 303 297 307 303 300 308 312 314 314 315 317 317 318 320 319 319 319 319 317 316 316 316 317
306 306 306 306 306 306 307 307 308 308 310 310 308 306 306 305 295 299 297 301 301 306 307 307 307 310 309 311 306 306 300 300 307 303 301 305 311 312 314 314 316 319 319 320 320 319 320 318 319 316 315 316 316 315
305 305 306 306 306 306 307 307 308 310 308 305 304 289 299 299 301 303 304 305 309 309 308 309 307 309 308 307 306 300 303 305 299 297 299 307 311 313 313 315 316 317 319 319 318 318 317 315 316 316 316 316 315 314
305 305 305 305 306 306 307 308 309 310 307 304 304 293 300 305 306 307 308 308 310 311 310 308 307 309 306 304 304 302 300 297 299 299 306 311 314 313 314 316 317 318 320 318 318 317 317 317 315 315 316 315 315 315
305 305 303 305 305 306 307 308 311 309 308 306 305 301 306 304 305 306 307 307 311 310 311 312 306 304 301 303 300 298 298 297 302 307 311 312 314 315 315 317 318 320 320 319 319 318 317 317 314 315 316 314 314 314
304 301 305 308 306 307 307 309 308 305 305 302 302 307 306 306 305 307 309 310 311 309 306 306 301 299 303 300 298 303 302 305 310 311 312 313 314 315 316 319 320 320 319 319 319 318 316 318 316 314 310 312 313 313
301 304 308 307 308 308 308 308 306 304 301 303 302 304 307 308 307 307 309 311 309 307 307 304 305 301 300 298 300 305 307 311 312 312 312 315 316 318 319 320 320 319 319 319 319 318 317 315 313 312 311 311 312 310
303 306 306 308 309 307 303 304 305 300 302 304 305 306 306 308 310 309 308 309 309 310 307 306 303 301 302 305 307 309 310 310 310 312 314 317 319 320 320 321 321 320 319 318 316 314 316 315 314 314 313 311 311 310
305 305 305 307 310 305 302 301 307 303 301 304 306 307 306 307 308 309 310 308 309 308 306 304 304 306 307 310 311 312 312 312 312 313 315 317 320 321 322 322 320 321 318 317 316 307 313 313 313 312 312 312 312 311
304 306 309 310 307 306 304 302 300 302 303 303 305 306 306 307 306 309 308 309 309 304 303 306 307 310 311 311 312 313 312 313 314 318 318 317 319 322 322 321 322 319 316 316 314 312 309 311 310 311 311 310 308 310
305 308 307 307 302 304 304 306 304 305 304 304 305 307 305 304 305 306 307 306 306 307 309 309 310 310 309 311 315 314 316 316 318 319 307 313 316 319 321 321 318 314 312 314 313 311 311 311 310 309 309 309 307 307
308 308 304 304 299 296 296 306 302 303 299 302 304 302 304 305 306 308 305 306 307 311 312 311 312 312 313 316 317 318 320 320 320 318 321 322 322 323 322 320 316 312 312 312 314 312 310 304 306 309 308 308 308 308
307 302 299 298 297 294 302 300 303 301 303 300 300 297 301 304 307 304 301 304 309 311 309 312 312 313 315 317 316 317 319 320 321 320 322 321 319 321 322 319 315 315 318 318 314 312 311 310 304 309 309 308 307 307
294 294 295 289 299 298 296 298 298 299 295 299 297 297 302 306 302 301 301 305 308 311 313 313 313 315 316 316 315 316 319 316 317 319 322 324 321 317 319 320 319 319 320 314 312 312 312 312 311 310 309 309 308 308
288 295 292 295 296 295 296 294 296 296 297 296 298 302 304 303 298 298 303 307 308 312 313 313 313 314 313 316 315 315 319 318 321 321 323 322 318 313 312 312 312 314 319 317 315 314 312 313 312 311 311 309 300 310
289 293 298 301 300 299 299 299 301 299 294 294 298 299 300 296 297 303 308 311 311 314 316 318 317 316 317 316 317 321 323 320 321 323 324 324 322 318 316 313 313 316 322 321 319 317 313 312 312 312 312 313 314 313
297 298 293 297 296 299 297 299 298 296 296 301 301 298 297 298 302 310 314 316 317 316 315 318 319 318 317 319 318 319 322 324 322 323 324 322 323 322 320 320 322 299 320 323 323 322 317 316 315 315 314 312 311 311
297 301 300 296 297 299 299 299 299 303 304 302 301 300 304 308 312 314 315 315 317 318 315 316 317 319 319 319 318 321 322 322 317 316 316 315 316 318 319 320 319 317 317 317 301 309 317 315 315 314 313 313 313 312
297 302 298 298 297 297 302 305 305 305 305 306 307 307 308 310 314 316 316 317 317 316 317 318 319 318 316 317 316 317 319 321 322 318 315 315 316 318 317 316 316 316 317 316 315 312 300 311 307 314 313 313 312 311
303 303 300 299 298 302 303 304 305 305 305 305 305 305 305 308 313 316 316 317 317 318 317 316 317 318 318 317 317 317 316 319 321 320 320 319 320 320 319 317 316 317 317 316 315 315 315 315 314 313 311 311 310 307
301 299 299 297 299 304 305 304 304 304 304 304 304 305 305 306 306 313 320 317 315 314 310 314 316 317 321 321 320 318 304 318 316 315 314 314 315 316 317 316 316 315 317 317 316 315 315 315 314 313 311 312 313 312
301 300 301 302 301 301 305 304 302 302 303 303 303 304 304 305 305 314 319 317 315 314 315 316 317 319 322 323 320 319 310 314 304 296 296 295 299 305 312 315 317 316 316 316 316 315 316 315 315 315 314 313 313 313
Wind_Speed
13 15 15 15 13 10 6 6 7 10 12 13 13 15 16 17 16 7 1 4 2 1 1 1 1 2 2 1 2 3 3 2 2 3 2 3 2 2 2 0 0 1 2 2 2 3 5 3 2 3 6 1 3 6
13 14 14 12 10 6 5 4 6 8 11 12 13 13 15 15 15 10 1 2 2 2 3 3 4 4 3 1 3 1 3 2 2 3 2 2 3 3 1 3 1 3 2 2 4 3 2 1 3 4 4 7 9 9
12 13 16 9 2 4 5 5 6 9 11 11 12 13 14 14 14 10 2 3 2 1 2 2 3 4 2 2 2 1 2 3 3 2 3 2 2 1 2 2 1 3 2 2 4 2 4 5 4 6 6 10 13 15
11 9 11 4 3 3 4 5 6 8 10 12 12 13 13 13 14 10 1 3 1 1 1 3 3 2 4 2 4 3 6 5 5 0 2 2 1 2 1 2 2 3 3 1 4 5 6 8 9 8 10 13 15 17
8 6 7 8 7 6 4 5 6 7 9 11 13 13 14 13 13 5 1 2 1 3 1 2 2 3 2 4 9 7 6 4 2 2 2 2 2 2 2 1 2 3 1 4 5 7 6 10 10 9 14 18 19 20
8 7 7 8 9 9 7 5 5 7 9 11 12 14 14 12 12 3 2 3 3 2 2 3 2 2 3 5 8 8 5 4 2 2 3 3 2 2 1 1 1 2 4 5 4 4 8 14 15 17 16 18 20 21
9 8 9 8 9 7 8 6 5 8 10 12 13 14 12 10 4 2 2 3 2 3 1 2 3 2 2 2 3 3 4 3 3 2 2 2 2 2 1 2 2 3 5 6 6 6 11 11 15 19 19 20 20 20
9 9 9 9 7 7 6 6 8 11 11 12 14 14 13 10 4 3 1 0 5 1 1 2 2 2 3 2 2 3 2 1 4 2 2 1 3 1 3 4 5 6 6 7 7 7 13 16 17 18 18 18 20 20
9 9 8 8 7 7 7 7 9 10 11 12 14 16 2 2 2 2 6 5 1 2 1 1 4 4 1 2 2 2 2 2 1 1 2 2 1 3 3 4 4 4 5 10 12 14 15 15 19 20 20 21 21 22
8 7 7 6 7 6 7 7 7 8 9 10 3 2 2 2 3 4 2 1 1 1 0 2 0 3 1 1 3 2 2 2 2 3 1 1 2 4 6 6 7 7 8 9 12 14 17 17 17 19 19 18 16 16
7 6 5 5 6 6 5 4 6 8 4 2 1 1 3 4 2 0 1 2 1 3 3 1 3 3 1 2 3 2 3 1 2 3 2 1 2 3 2 4 5 6 7 10 9 12 13 14 16 17 19 17 16 16
7 6 5 4 5 4 4 4 5 3 1 2 1 2 2 2 1 3 2 1 4 2 4 4 3 0 3 0 3 1 2 2 2 1 2 2 2 3 4 7 9 9 10 12 11 12 14 15 15 16 15 15 16 16
6 5 4 4 4 5 5 4 3 6 5 1 2 2 1 2 2 5 7 4 3 5 5 5 4 2 3 2 4 2 3 2 2 2 2 2 1 4 4 6 9 10 10 11 11 12 13 15 17 14 15 15 17 15
5 5 5 4 4 3 3 3 4 3 2 1 3 1 4 4 4 4 3 1 1 2 7 5 4 1 2 3 2 3 2 3 3 3 2 1 2 5 6 5 7 11 10 10 10 12 13 14 15 15 14 14 15 15
4 4 5 5 7 6 4 4 4 2 1 1 2 3 4 2 3 3 2 2 1 4 6 5 4 1 3 4 1 3 4 3 3 2 1 1 3 5 7 7 8 8 8 7 9 11 12 15 15 14 14 14 14 14
2 2 2 5 6 5 5 3 3 1 2 2 2 2 2 3 1 1 3 3 4 5 3 2 4 3 2 3 4 3 4 3 3 2 1 2 4 5 6 6 7 5 5 6 8 9 11 14 13 13 13 14 14 14
4 2 2 6 7 5 5 2 3 3 1 2 3 3 4 4 4 2 1 1 4 5 5 3 4 2 4 2 3 3 3 4 2 2 2 3 4 6 6 6 5 4 4 7 7 9 11 13 12 12 15 15 13 13
1 2 8 9 6 4 1 1 1 2 4 3 3 0 1 2 4 2 2 2 4 3 3 2 5 3 4 4 3 3 3 2 1 2 2 3 4 4 4 4 4 4 5 6 7 8 10 13 12 10 12 12 11 12
2 1 6 4 4 1 2 2 1 2 2 1 2 2 2 3 2 3 2 1 1 2 5 1 3 2 3 2 3 4 3 3 2 1 2 3 3 4 3 4 5 5 5 7 8 6 6 9 7 8 9 9 8 10
2 6 5 3 4 1 2 1 1 2 0 1 2 2 2 2 3 1 1 3 2 1 3 1 2 2 3 3 3 2 2 3 2 1 1 1 3 4 4 4 4 4 4 5 6 7 7 7 8 7 8 9 9 10
1 2 1 3 1 1 0 2 1 1 2 1 2 2 2 1 1 2 2 0 2 1 1 0 1 3 3 2 1 2 3 4 3 1 0 1 3 3 4 4 4 3 4 4 6 6 7 6 6 7 8 9 9 8
1 2 2 2 2 1 0 1 1 1 1 2 1 1 1 2 2 2 3 2 2 3 3 3 2 3 3 3 3 4 3 5 3 2 2 3 3 4 4 4 4 4 5 5 6 6 6 5 5 7 8 8 8 10
2 1 2 1 2 2 1 1 1 2 0 1 0 1 2 2 2 3 2 3 2 3 3 3 2 2 2 3 4 4 4 4 2 2 3 4 4 5 5 5 5 6 5 5 5 5 5 3 6 7 8 8 8 9
2 1 1 2 1 1 2 3 1 1 1 1 2 2 2 2 3 4 4 3 3 2 4 5 4 3 3 4 4 3 4 3 3 3 4 6 6 5 5 6 5 5 4 4 4 4 5 6 6 7 7 8 8 8
3 3 2 1 2 3 2 3 3 3 3 2 2 3 3 4 4 4 3 3 4 4 4 5 4 4 4 4 3 3 4 3 4 5 6 4 6 6 6 5 4 4 3 4 4 4 4 4 5 6 6 6 7 7
3 5 4 3 2 1 2 2 4 4 2 2 3 3 2 1 1 5 3 4 4 5 6 7 7 4 3 3 4 4 4 5 6 4 6 6 7 8 8 8 6 5 3 3 2 2 3 2 2 3 4 4 1 5
2 2 2 0 1 1 2 2 0 2 1 2 2 2 4 5 5 1 1 1 1 2 3 5 6 6 5 5 3 3 4 3 2 1 7 7 6 6 7 8 7 4 5 6 4 4 4 3 2 1 3 4 5 6
1 2 4 5 2 1 3 2 3 3 3 5 3 5 3 2 1 1 1 1 1 0 3 3 2 3 3 4 5 6 5 4 6 8 6 5 3 3 4 3 2 2 3 4 3 3 2 1 1 1 1 4 5 6
2 2 4 4 3 4 3 2 2 3 3 3 2 1 0 0 2 2 2 2 1 4 6 5 3 4 5 4 5 3 6 7 9 12 12 8 6 4 4 4 3 3 3 3 3 1 5 5 4 3 2 3 3 3
2 5 4 5 4 5 5 5 3 2 3 2 2 1 1 1 2 2 2 3 3 2 2 2 4 5 6 6 7 6 4 5 5 7 8 9 7 5 4 4 4 4 4 4 6 7 6 7 4 3 1 1 1 2
2 4 3 3 2 1 2 2 2 2 2 1 1 2 2 1 1 1 2 2 3 4 4 4 3 4 5 5 4 4 4 2 6 6 4 6 6 4 4 4 3 3 5 7 6 6 6 5 4 4 3 3 2 4
4 5 3 2 1 1 1 2 1 1 2 1 1 1 1 1 2 2 1 3 3 3 4 6 5 4 3 3 3 3 4 6 5 5 7 6 6 4 3 4 4 5 5 7 7 6 7 6 5 5 4 6 6 6
2 2 2 1 2 2 2 2 0 0 0 0 1 1 1 1 2 2 1 2 2 3 2 4 4 3 5 5 5 5 6 6 7 4 4 1 5 5 4 4 5 5 6 6 6 6 7 7 6 6 6 7 9 9
Wind_Direction
301 295 297 295 292 289 299 310 324 334 337 339 344 347 351 356 360 358 7 9 320 318 348 293 15 126 133 47 172 98 186 151 99 124 193 151 208 111 192 85 254 275 236 181 167 247 251 33 135 304 358 272 258 293
299 302 297 282 285 301 305 318 331 335 339 337 340 343 346 349 355 357 332 32 325 257 4 312 304 310 337 344 130 109 31 110 116 112 174 143 161 178 180 189 146 216 313 352 254 7 24 329 48 348 281 280 280 276
298 306 304 270 291 333 340 334 345 342 338 337 337 340 344 344 351 0 312 330 261 305 172 208 91 16 105 24 303 227 176 130 140 2 125 96 148 203 186 178 208 152 158 271 275 134 249 250 246 269 271 272 284 286
294 309 340 13 345 339 346 344 352 343 336 340 340 337 340 341 341 347 328 0 303 34 168 119 340 78 342 68 62 35 117 110 97 41 78 88 95 241 110 56 287 27 182 216 266 265 283 260 241 259 293 295 290 286
309 304 318 326 321 312 314 325 337 343 339 332 336 335 335 338 339 323 235 44 11 321 19 119 291 26 335 83 81 85 107 108 79 107 83 84 92 179 86 213 226 189 94 288 306 311 279 276 281 300 294 295 295 294
283 288 293 297 300 287 282 294 313 327 332 326 326 329 328 331 340 270 207 151 32 350 284 161 12 13 73 80 79 66 62 73 71 72 82 100 74 294 198 242 77 233 234 251 288 334 280 287 291 289 288 294 295 293
274 275 286 298 295 293 296 266 301 316 321 314 315 317 315 317 324 277 354 41 139 315 270 133 137 52 346 85 60 53 46 60 28 94 77 87 111 314 135 245 182 296 310 298 275 295 296 297 299 305 300 298 298 291
276 275 276 279 294 293 286 278 313 302 303 302 306 307 305 303 237 263 99 125 176 113 314 151 117 170 4 102 109 356 75 67 34 70 136 80 144 279 227 237 269 282 292 299 315 304 282 297 298 299 304 305 303 300
276 271 277 276 276 276 283 294 286 289 293 298 302 302 283 218 208 73 107 135 70 304 206 228 174 160 68 84 71 112 354 106 17 106 82 258 140 222 213 237 273 306 309 311 314 310 311 309 309 313 317 315 312 306
269 261 272 276 270 269 279 282 282 286 287 298 291 235 164 100 332 145 179 197 154 21 39 238 67 138 203 143 101 158 27 72 174 73 217 261 257 282 261 254 276 296 308 318 315 320 319 316 319 316 313 309 302 300
250 256 265 274 271 269 272 275 302 302 276 198 197 154 12 322 191 216 176 221 160 216 180 165 213 134 101 143 109 1 109 87 196 110 269 187 240 244 8 313 316 303 300 305 300 298 306 311 316 317 316 315 311 306
246 244 268 279 281 269 258 257 299 287 11 312 308 282 261 184 125 205 193 165 219 220 167 173 149 88 116 165 111 105 105 189 156 129 225 214 254 282 304 327 330 335 333 325 330 326 324 323 328 323 313 314 317 317
250 237 257 275 271 284 236 239 270 293 285 168 200 162 154 148 147 204 182 189 214 172 167 165 139 115 141 98 84 148 154 132 146 196 226 237 299 295 323 323 326 337 340 340 344 335 335 342 338 328 325 326 318 317
243 234 239 246 264 271 239 226 273 270 236 191 161 56 208 181 232 202 203 163 115 166 152 141 112 99 90 95 114 141 87 179 172 200 205 189 263 309 313 311 333 337 345 348 342 344 354 348 343 338 334 332 335 333
240 221 221 251 246 247 250 225 274 222 235 188 185 210 224 277 260 258 251 264 194 148 149 123 90 95 90 115 76 119 165 190 217 177 194 232 281 299 304 332 344 340 348 348 349 353 355 348 347 340 349 348 343 346
193 255 233 245 244 230 208 236 186 236 229 244 222 259 216 264 251 215 217 235 169 162 136 94 116 127 105 131 165 181 172 190 145 204 218 280 293 306 315 337 342 342 350 347 357 3 355 355 346 341 350 355 351 350
186 252 297 296 197 204 197 221 182 206 260 212 227 239 267 278 275 295 295 178 154 170 164 143 133 100 122 134 163 198 193 145 186 182 239 263 291 309 321 344 4 8 17 359 9 20 3 2 351 2 4 356 358 355
214 302 337 147 155 155 175 231 208 190 225 219 251 357 250 264 295 312 341 152 184 149 155 126 129 153 154 169 181 177 200 207 234 255 277 296 295 306 335 358 31 50 28 18 28 30 19 16 6 6 358 356 5 3
167 24 10 176 220 190 160 171 233 214 233 270 272 264 271 292 289 300 318 75 125 207 108 98 112 141 162 188 156 153 172 198 141 166 284 299 308 345 24 69 93 69 54 44 43 31 24 21 13 12 17 9 16 12
320 306 297 295 237 256 153 116 272 252 197 18 277 296 292 302 321 351 344 33 60 74 177 144 133 163 155 159 187 157 156 154 165 226 123 106 36 60 62 98 103 75 81 67 57 30 35 35 29 8 16 24 21 21
199 249 160 118 281 302 11 141 134 286 344 294 346 312 309 338 39 40 53 317 65 14 347 256 214 153 157 122 156 179 171 173 192 222 184 105 61 78 94 105 111 87 71 60 55 45 42 35 25 22 27 31 37 32
252 197 94 21 351 336 11 60 39 87 280 323 321 327 257 190 147 136 46 287 191 206 205 184 199 174 179 202 180 194 164 182 190 183 165 133 143 142 121 117 125 89 68 62 63 55 49 38 39 50 44 34 38 48
304 213 72 110 43 58 113 323 221 173 174 72 136 261 224 214 170 159 227 217 229 221 202 213 198 186 185 137 146 153 172 169 171 157 136 119 110 115 124 132 134 113 98 72 70 73 66 42 61 58 59 56 49 42
266 84 109 108 168 142 184 182 191 286 182 206 201 247 216 224 149 202 222 203 209 160 193 192 168 142 126 149 178 176 158 168 135 119 130 139 130 127 146 132 127 106 93 111 96 88 75 70 65 65 59 57 52 51
71 356 63 280 239 219 153 156 163 190 225 152 101 286 240 185 203 218 221 203 199 206 188 172 184 208 181 158 149 172 163 156 155 167 155 156 133 124 129 127 129 124 162 150 126 119 103 90 76 68 61 51 43 42
119 190 180 199 158 224 142 213 182 194 203 207 235 274 277 182 183 242 210 196 200 184 177 178 171 155 182 183 166 175 179 176 173 172 154 174 161 150 144 143 156 157 182 199 164 119 98 70 66 57 52 54 59 14
105 146 165 231 318 287 250 223 348 134 138 249 250 222 197 206 220 238 310 206 203 184 179 168 163 168 162 162 142 101 107 134 232 170 150 173 167 169 167 166 182 160 179 210 207 208 201 193 193 30 351 332 347 356
249 169 188 164 194 222 298 263 190 163 197 229 241 198 214 240 228 23 309 19 298 248 134 130 144 161 165 157 121 133 112 115 108 108 107 122 136 177 199 181 152 139 233 232 226 182 196 232 243 30 20 36 38 18
227 183 161 180 207 214 238 282 241 196 245 250 264 170 198 48 359 347 8 356 72 130 122 120 94 107 93 81 84 93 137 161 142 148 152 159 166 182 201 219 212 182 182 165 182 117 135 120 117 101 48 45 21 344
233 177 203 185 210 198 209 201 252 285 233 288 303 238 193 74 37 346 279 105 85 93 103 106 135 147 142 144 136 133 178 194 203 167 168 171 169 150 170 186 173 166 153 135 136 126 129 130 145 170 228 336 327 328
165 194 238 208 238 221 247 300 265 254 259 249 325 21 71 357 358 110 358 36 87 110 139 139 148 148 136 120 119 142 135 154 178 176 175 136 139 152 158 170 180 177 162 155 162 167 169 177 172 197 230 280 314 301
188 209 224 183 258 300 308 271 317 349 8 6 60 21 112 132 112 298 321 133 154 148 169 151 161 176 172 128 132 92 84 116 129 131 158 144 138 161 176 196 173 189 193 174 170 180 194 210 198 210 237 273 298 310
174 182 224 251 222 224 199 245 211 349 308 60 92 350 312 333 87 124 246 283 260 271 254 108 120 145 172 157 137 113 100 98 99 78 103 135 226 207 190 198 201 185 174 194 191 196 210 224 237 244 249 268 286 298